Volver al catálogo

FENGYUN 1C DEB

ActivoPO
NORAD 30146·DEBRIS·🇨🇳 China

Lanzado May 10, 1999 desde Taiyuan Satellite Launch Center

Loading…

Próximos Pases (próximas 24 horas)

TLE

ActualizadoSource: Space-Track

Época: Sep 14, 2026, 20:02 UTC

1 30146U 99025TB  26257.83521081  .00000365  00000-0  30037-3 0  9999
2 30146  98.0544  23.9489 0178477  75.7853  76.0340 13.86985226992448

Sigue FENGYUN 1C DEB en tiempo real con AllMySat

Download on the App Store